M I D A S
Marine Information and Data Acquisition System
Tripno 1480 of the Zeeleeuw from 2008-05-06 12:10:16 to 2008-05-06 13:47:56
Back to CruiseResearch ActivitiesStationsMapUnderway DataData graphs

EquipmentUnitsComments
TimeDGPSUTC
LatitudeDGPSDM.mWGS84
LongitudeDGPSDM.mWGS84
SpeedMeteo Stationm/sRelative wind speed
DirectionMeteo StationdegRelative wind direction
TemperatureMeteo Stationdeg CelciusAir temperature
PressureMeteo StationPaAtmospheric pressure
HumidityMeteo Station%Relative humidity
Missing or incorrect values are displayed as -999
Metereological data collected by the RV Zeeleeuw from 2008-05-06 08:21:52 to 2008-05-06 14:00:11
                                                                                    Next 1000 lines
Time Latitude Longitude Speed Direction Temperature Pressure Humidity
2008-05-06 08:22:02 51°13.667 2°55.95 -999 -999 -999 -999 -999
2008-05-06 08:22:07 51°13.668 2°55.948 -999 -999 -999 -999 -999
2008-05-06 08:22:12 51°13.669 2°55.945 -999 -999 -999 -999 -999
2008-05-06 08:22:17 51°13.671 2°55.941 -999 -999 -999 -999 -999
2008-05-06 08:22:22 51°13.672 2°55.936 -999 -999 -999 -999 -999
2008-05-06 08:22:27 51°13.674 2°55.932 -999 -999 -999 -999 -999
2008-05-06 08:22:32 51°13.676 2°55.927 -999 -999 -999 -999 -999
2008-05-06 08:22:37 51°13.679 2°55.922 -999 -999 -999 -999 -999
2008-05-06 08:22:42 51°13.681 2°55.916 -999 -999 -999 -999 -999
2008-05-06 08:22:47 51°13.683 2°55.91 -999 -999 -999 -999 -999
2008-05-06 08:22:52 51°13.686 2°55.904 -999 -999 -999 -999 -999
2008-05-06 08:22:57 51°13.689 2°55.897 -999 -999 -999 -999 -999
2008-05-06 08:23:02 51°13.691 2°55.89 -999 -999 -999 -999 -999
2008-05-06 08:23:07 51°13.694 2°55.883 -999 -999 -999 -999 -999
2008-05-06 08:23:12 51°13.696 2°55.876 -999 -999 -999 -999 -999
2008-05-06 08:23:17 51°13.699 2°55.868 -999 -999 -999 -999 -999
2008-05-06 08:23:22 51°13.701 2°55.859 -999 -999 -999 -999 -999
2008-05-06 08:23:27 51°13.703 2°55.85 -999 -999 -999 -999 -999
2008-05-06 08:23:32 51°13.705 2°55.841 -999 -999 -999 -999 -999
2008-05-06 08:23:37 51°13.707 2°55.832 -999 -999 -999 -999 -999
2008-05-06 08:23:42 51°13.709 2°55.822 -999 -999 -999 -999 -999
2008-05-06 08:23:47 51°13.711 2°55.812 -999 -999 -999 -999 -999
2008-05-06 08:23:52 51°13.713 2°55.803 -999 -999 -999 -999 -999
2008-05-06 08:23:57 51°13.714 2°55.794 -999 -999 -999 -999 -999
2008-05-06 08:24:02 51°13.716 2°55.785 -999 -999 -999 -999 -999
2008-05-06 08:24:07 51°13.717 2°55.777 -999 -999 -999 -999 -999
2008-05-06 08:24:12 51°13.718 2°55.77 -999 -999 -999 -999 -999
2008-05-06 08:24:17 51°13.718 2°55.764 -999 -999 -999 -999 -999
2008-05-06 08:24:22 51°13.719 2°55.759 -999 -999 -999 -999 -999
2008-05-06 08:24:27 51°13.72 2°55.755 -999 -999 -999 -999 -999
2008-05-06 08:24:32 51°13.72 2°55.753 -999 -999 -999 -999 -999
2008-05-06 08:24:37 51°13.721 2°55.752 -999 -999 -999 -999 -999
2008-05-06 08:24:42 51°13.721 2°55.75 -999 -999 -999 -999 -999
2008-05-06 08:24:47 51°13.721 2°55.749 -999 -999 -999 -999 -999
2008-05-06 08:24:52 51°13.721 2°55.746 -999 -999 -999 -999 -999
2008-05-06 08:24:57 51°13.721 2°55.743 -999 -999 -999 -999 -999
2008-05-06 08:25:02 51°13.72 2°55.739 -999 -999 -999 -999 -999
2008-05-06 08:25:07 51°13.719 2°55.734 -999 -999 -999 -999 -999
2008-05-06 08:25:12 51°13.718 2°55.729 -999 -999 -999 -999 -999
2008-05-06 08:25:17 51°13.717 2°55.725 -999 -999 -999 -999 -999
2008-05-06 08:25:22 51°13.716 2°55.721 -999 -999 -999 -999 -999
2008-05-06 08:25:27 51°13.715 2°55.717 -999 -999 -999 -999 -999
2008-05-06 08:25:32 51°13.715 2°55.715 -999 -999 -999 -999 -999
2008-05-06 08:25:37 51°13.715 2°55.714 -999 -999 -999 -999 -999
2008-05-06 08:25:42 51°13.716 2°55.714 -999 -999 -999 -999 -999
2008-05-06 08:25:47 51°13.718 2°55.715 -999 -999 -999 -999 -999
2008-05-06 08:25:52 51°13.721 2°55.715 -999 -999 -999 -999 -999
2008-05-06 08:25:57 51°13.723 2°55.715 -999 -999 -999 -999 -999
2008-05-06 08:26:02 51°13.726 2°55.714 -999 -999 -999 -999 -999
2008-05-06 08:26:07 51°13.728 2°55.714 -999 -999 -999 -999 -999
2008-05-06 08:26:12 51°13.731 2°55.713 -999 -999 -999 -999 -999
2008-05-06 08:26:17 51°13.734 2°55.712 -999 -999 -999 -999 -999
2008-05-06 08:26:22 51°13.737 2°55.71 -999 -999 -999 -999 -999
2008-05-06 08:26:27 51°13.74 2°55.709 -999 -999 -999 -999 -999
2008-05-06 08:26:32 51°13.743 2°55.706 -999 -999 -999 -999 -999
2008-05-06 08:26:37 51°13.746 2°55.704 -999 -999 -999 -999 -999
2008-05-06 08:26:42 51°13.749 2°55.702 -999 -999 -999 -999 -999
2008-05-06 08:26:47 51°13.752 2°55.7 -999 -999 -999 -999 -999
2008-05-06 08:26:52 51°13.755 2°55.697 -999 -999 -999 -999 -999
2008-05-06 08:26:57 51°13.757 2°55.694 -999 -999 -999 -999 -999
2008-05-06 08:27:02 51°13.76 2°55.691 -999 -999 -999 -999 -999
2008-05-06 08:27:07 51°13.763 2°55.688 -999 -999 -999 -999 -999
2008-05-06 08:27:12 51°13.766 2°55.684 -999 -999 -999 -999 -999
2008-05-06 08:27:17 51°13.769 2°55.681 -999 -999 -999 -999 -999
2008-05-06 08:27:22 51°13.772 2°55.678 -999 -999 -999 -999 -999
2008-05-06 08:27:27 51°13.776 2°55.675 -999 -999 -999 -999 -999
2008-05-06 08:27:32 51°13.779 2°55.672 -999 -999 -999 -999 -999
2008-05-06 08:27:37 51°13.782 2°55.668 -999 -999 -999 -999 -999
2008-05-06 08:27:42 51°13.786 2°55.665 -999 -999 -999 -999 -999
2008-05-06 08:27:47 51°13.79 2°55.662 -999 -999 -999 -999 -999
2008-05-06 08:27:52 51°13.794 2°55.659 -999 -999 -999 -999 -999
2008-05-06 08:27:57 51°13.798 2°55.657 -999 -999 -999 -999 -999
2008-05-06 08:28:02 51°13.802 2°55.654 -999 -999 -999 -999 -999
2008-05-06 08:28:07 51°13.806 2°55.651 -999 -999 -999 -999 -999
2008-05-06 08:28:12 51°13.81 2°55.648 -999 -999 -999 -999 -999
2008-05-06 08:28:17 51°13.814 2°55.646 -999 -999 -999 -999 -999
2008-05-06 08:28:22 51°13.818 2°55.643 -999 -999 -999 -999 -999
2008-05-06 08:28:27 51°13.822 2°55.641 -999 -999 -999 -999 -999
2008-05-06 08:28:32 51°13.827 2°55.638 -999 -999 -999 -999 -999
2008-05-06 08:28:37 51°13.831 2°55.637 -999 -999 -999 -999 -999
2008-05-06 08:28:42 51°13.836 2°55.636 -999 -999 -999 -999 -999
2008-05-06 08:28:47 51°13.841 2°55.635 -999 -999 -999 -999 -999
2008-05-06 08:28:52 51°13.845 2°55.635 -999 -999 -999 -999 -999
2008-05-06 08:28:57 51°13.85 2°55.635 -999 -999 -999 -999 -999
2008-05-06 08:29:02 51°13.855 2°55.635 -999 -999 -999 -999 -999
2008-05-06 08:29:07 51°13.859 2°55.635 -999 -999 -999 -999 -999
2008-05-06 08:29:12 51°13.864 2°55.636 -999 -999 -999 -999 -999
2008-05-06 08:29:17 51°13.869 2°55.636 -999 -999 -999 -999 -999
2008-05-06 08:29:22 51°13.873 2°55.636 -999 -999 -999 -999 -999
2008-05-06 08:29:27 51°13.878 2°55.637 -999 -999 -999 -999 -999
2008-05-06 08:29:32 51°13.883 2°55.637 -999 -999 -999 -999 -999
2008-05-06 08:29:37 51°13.888 2°55.638 -999 -999 -999 -999 -999
2008-05-06 08:29:42 51°13.892 2°55.638 -999 -999 -999 -999 -999
2008-05-06 08:29:47 51°13.897 2°55.639 -999 -999 -999 -999 -999
2008-05-06 08:29:52 51°13.901 2°55.639 -999 -999 -999 -999 -999
2008-05-06 08:29:57 51°13.905 2°55.64 -999 -999 -999 -999 -999
2008-05-06 08:30:02 51°13.91 2°55.64 -999 -999 -999 -999 -999
2008-05-06 08:30:07 51°13.913 2°55.641 -999 -999 -999 -999 -999
2008-05-06 08:30:12 51°13.916 2°55.641 -999 -999 -999 -999 -999
2008-05-06 08:30:17 51°13.919 2°55.642 -999 -999 -999 -999 -999
2008-05-06 08:30:22 51°13.922 2°55.642 -999 -999 -999 -999 -999
2008-05-06 08:30:27 51°13.924 2°55.642 -999 -999 -999 -999 -999
2008-05-06 08:30:32 51°13.926 2°55.642 -999 -999 -999 -999 -999
2008-05-06 08:30:37 51°13.928 2°55.642 -999 -999 -999 -999 -999
2008-05-06 08:30:42 51°13.93 2°55.642 -999 -999 -999 -999 -999
2008-05-06 08:30:47 51°13.932 2°55.641 -999 -999 -999 -999 -999
2008-05-06 08:30:52 51°13.934 2°55.641 -999 -999 -999 -999 -999
2008-05-06 08:30:57 51°13.935 2°55.641 -999 -999 -999 -999 -999
2008-05-06 08:31:02 51°13.937 2°55.641 -999 -999 -999 -999 -999
2008-05-06 08:31:07 51°13.939 2°55.64 -999 -999 -999 -999 -999
2008-05-06 08:31:12 51°13.94 2°55.64 -999 -999 -999 -999 -999
2008-05-06 08:31:17 51°13.942 2°55.64 -999 -999 -999 -999 -999
2008-05-06 08:31:22 51°13.943 2°55.639 -999 -999 -999 -999 -999
2008-05-06 08:31:27 51°13.944 2°55.639 -999 -999 -999 -999 -999
2008-05-06 08:31:32 51°13.946 2°55.638 -999 -999 -999 -999 -999
2008-05-06 08:31:37 51°13.947 2°55.638 -999 -999 -999 -999 -999
2008-05-06 08:31:42 51°13.947 2°55.638 -999 -999 -999 -999 -999
2008-05-06 08:31:47 51°13.948 2°55.637 -999 -999 -999 -999 -999
2008-05-06 08:31:52 51°13.949 2°55.637 -999 -999 -999 -999 -999
2008-05-06 08:31:57 51°13.95 2°55.636 -999 -999 -999 -999 -999
2008-05-06 08:32:02 51°13.951 2°55.636 -999 -999 -999 -999 -999
2008-05-06 08:32:07 51°13.951 2°55.636 -999 -999 -999 -999 -999
2008-05-06 08:32:12 51°13.951 2°55.636 -999 -999 -999 -999 -999
2008-05-06 08:32:17 51°13.951 2°55.635 -999 -999 -999 -999 -999
2008-05-06 08:32:22 51°13.951 2°55.635 -999 -999 -999 -999 -999
2008-05-06 08:32:27 51°13.951 2°55.635 -999 -999 -999 -999 -999
2008-05-06 08:32:32 51°13.951 2°55.635 -999 -999 -999 -999 -999
2008-05-06 08:32:37 51°13.95 2°55.635 -999 -999 -999 -999 -999
2008-05-06 08:32:42 51°13.95 2°55.635 -999 -999 -999 -999 -999
2008-05-06 08:32:47 51°13.95 2°55.635 -999 -999 -999 -999 -999
2008-05-06 08:32:52 51°13.949 2°55.635 -999 -999 -999 -999 -999
2008-05-06 08:32:57 51°13.949 2°55.635 -999 -999 -999 -999 -999
2008-05-06 08:33:02 51°13.949 2°55.635 -999 -999 -999 -999 -999
2008-05-06 08:33:07 51°13.949 2°55.634 -999 -999 -999 -999 -999
2008-05-06 08:33:12 51°13.949 2°55.634 -999 -999 -999 -999 -999
2008-05-06 08:33:17 51°13.949 2°55.634 -999 -999 -999 -999 -999
2008-05-06 08:33:22 51°13.949 2°55.634 -999 -999 -999 -999 -999
2008-05-06 08:33:27 51°13.949 2°55.634 -999 -999 -999 -999 -999
2008-05-06 08:33:32 51°13.949 2°55.633 -999 -999 -999 -999 -999
2008-05-06 08:33:37 51°13.949 2°55.633 -999 -999 -999 -999 -999
2008-05-06 08:33:42 51°13.949 2°55.633 -999 -999 -999 -999 -999
2008-05-06 08:33:47 51°13.949 2°55.633 -999 -999 -999 -999 -999
2008-05-06 08:33:52 51°13.949 2°55.632 -999 -999 -999 -999 -999
2008-05-06 08:33:57 51°13.949 2°55.632 -999 -999 -999 -999 -999
2008-05-06 08:34:02 51°13.949 2°55.632 -999 -999 -999 -999 -999
2008-05-06 08:34:07 51°13.949 2°55.632 -999 -999 -999 -999 -999
2008-05-06 08:34:12 51°13.949 2°55.631 -999 -999 -999 -999 -999
2008-05-06 08:34:17 51°13.949 2°55.631 -999 -999 -999 -999 -999
2008-05-06 08:34:22 51°13.95 2°55.631 -999 -999 -999 -999 -999
2008-05-06 08:34:27 51°13.95 2°55.631 -999 -999 -999 -999 -999
2008-05-06 08:34:32 51°13.95 2°55.631 -999 -999 -999 -999 -999
2008-05-06 08:34:37 51°13.95 2°55.63 -999 -999 -999 -999 -999
2008-05-06 08:34:42 51°13.95 2°55.63 -999 -999 -999 -999 -999
2008-05-06 08:34:47 51°13.95 2°55.63 -999 -999 -999 -999 -999
2008-05-06 08:34:52 51°13.95 2°55.63 -999 -999 -999 -999 -999
2008-05-06 08:34:57 51°13.951 2°55.629 -999 -999 -999 -999 -999
2008-05-06 08:35:02 51°13.951 2°55.629 -999 -999 -999 -999 -999
2008-05-06 08:35:07 51°13.951 2°55.629 -999 -999 -999 -999 -999
2008-05-06 08:35:12 51°13.951 2°55.629 -999 -999 -999 -999 -999
2008-05-06 08:35:17 51°13.951 2°55.629 -999 -999 -999 -999 -999
2008-05-06 08:35:22 51°13.952 2°55.628 -999 -999 -999 -999 -999
2008-05-06 08:35:27 51°13.952 2°55.628 -999 -999 -999 -999 -999
2008-05-06 08:35:32 51°13.952 2°55.628 -999 -999 -999 -999 -999
2008-05-06 08:35:37 51°13.952 2°55.628 -999 -999 -999 -999 -999
2008-05-06 08:35:42 51°13.952 2°55.628 -999 -999 -999 -999 -999
2008-05-06 08:35:47 51°13.952 2°55.628 -999 -999 -999 -999 -999
2008-05-06 08:35:52 51°13.953 2°55.628 -999 -999 -999 -999 -999
2008-05-06 08:35:57 51°13.953 2°55.627 -999 -999 -999 -999 -999
2008-05-06 08:36:02 51°13.953 2°55.627 -999 -999 -999 -999 -999
2008-05-06 08:36:07 51°13.953 2°55.627 -999 -999 -999 -999 -999
2008-05-06 08:36:12 51°13.953 2°55.627 -999 -999 -999 -999 -999
2008-05-06 08:36:17 51°13.953 2°55.626 -999 -999 -999 -999 -999
2008-05-06 08:36:22 51°13.953 2°55.626 -999 -999 -999 -999 -999
2008-05-06 08:36:27 51°13.953 2°55.626 -999 -999 -999 -999 -999
2008-05-06 08:36:32 51°13.953 2°55.626 -999 -999 -999 -999 -999
2008-05-06 08:36:37 51°13.953 2°55.626 -999 -999 -999 -999 -999
2008-05-06 08:36:42 51°13.953 2°55.625 -999 -999 -999 -999 -999
2008-05-06 08:36:47 51°13.954 2°55.625 -999 -999 -999 -999 -999
2008-05-06 08:36:52 51°13.954 2°55.625 -999 -999 -999 -999 -999
2008-05-06 08:36:57 51°13.954 2°55.624 -999 -999 -999 -999 -999
2008-05-06 08:37:02 51°13.954 2°55.624 -999 -999 -999 -999 -999
2008-05-06 08:37:07 51°13.954 2°55.624 -999 -999 -999 -999 -999
2008-05-06 08:37:12 51°13.954 2°55.623 -999 -999 -999 -999 -999
2008-05-06 08:37:17 51°13.955 2°55.623 -999 -999 -999 -999 -999
2008-05-06 08:37:22 51°13.955 2°55.622 -999 -999 -999 -999 -999
2008-05-06 08:37:27 51°13.956 2°55.622 -999 -999 -999 -999 -999
2008-05-06 08:37:32 51°13.956 2°55.621 -999 -999 -999 -999 -999
2008-05-06 08:37:37 51°13.957 2°55.62 -999 -999 -999 -999 -999
2008-05-06 08:37:42 51°13.959 2°55.618 -999 -999 -999 -999 -999
2008-05-06 08:37:47 51°13.962 2°55.615 -999 -999 -999 -999 -999
2008-05-06 08:37:52 51°13.967 2°55.611 -999 -999 -999 -999 -999
2008-05-06 08:37:57 51°13.971 2°55.606 -999 -999 -999 -999 -999
2008-05-06 08:38:02 51°13.977 2°55.6 -999 -999 -999 -999 -999
2008-05-06 08:38:07 51°13.983 2°55.593 -999 -999 -999 -999 -999
2008-05-06 08:38:12 51°13.989 2°55.586 -999 -999 -999 -999 -999
2008-05-06 08:38:17 51°13.995 2°55.578 -999 -999 -999 -999 -999
2008-05-06 08:38:22 51°14.002 2°55.569 -999 -999 -999 -999 -999
2008-05-06 08:38:27 51°14.01 2°55.56 -999 -999 -999 -999 -999
2008-05-06 08:38:32 51°14.017 2°55.551 -999 -999 -999 -999 -999
2008-05-06 08:38:37 51°14.025 2°55.541 -999 -999 -999 -999 -999
2008-05-06 08:38:42 51°14.033 2°55.531 -999 -999 -999 -999 -999
2008-05-06 08:38:47 51°14.042 2°55.521 -999 -999 -999 -999 -999
2008-05-06 08:38:52 51°14.05 2°55.51 -999 -999 -999 -999 -999
2008-05-06 08:38:57 51°14.059 2°55.5 -999 -999 -999 -999 -999
2008-05-06 08:39:02 51°14.068 2°55.49 -999 -999 -999 -999 -999
2008-05-06 08:39:07 51°14.077 2°55.479 -999 -999 -999 -999 -999
2008-05-06 08:39:12 51°14.086 2°55.468 -999 -999 -999 -999 -999
2008-05-06 08:39:17 51°14.095 2°55.457 -999 -999 -999 -999 -999
2008-05-06 08:39:22 51°14.104 2°55.446 -999 -999 -999 -999 -999
2008-05-06 08:39:27 51°14.114 2°55.436 -999 -999 -999 -999 -999
2008-05-06 08:39:32 51°14.123 2°55.425 -999 -999 -999 -999 -999
2008-05-06 08:39:37 51°14.133 2°55.415 -999 -999 -999 -999 -999
2008-05-06 08:39:42 51°14.143 2°55.405 -999 -999 -999 -999 -999
2008-05-06 08:39:47 51°14.152 2°55.395 -999 -999 -999 -999 -999
2008-05-06 08:39:52 51°14.162 2°55.385 -999 -999 -999 -999 -999
2008-05-06 08:39:57 51°14.172 2°55.374 -999 -999 -999 -999 -999
2008-05-06 08:40:02 51°14.181 2°55.364 -999 -999 -999 -999 -999
2008-05-06 08:40:07 51°14.191 2°55.354 -999 -999 -999 -999 -999
2008-05-06 08:40:12 51°14.2 2°55.343 -999 -999 -999 -999 -999
2008-05-06 08:40:17 51°14.21 2°55.332 -999 -999 -999 -999 -999
2008-05-06 08:40:22 51°14.219 2°55.321 -999 -999 -999 -999 -999
2008-05-06 08:40:27 51°14.228 2°55.31 -999 -999 -999 -999 -999
2008-05-06 08:40:32 51°14.236 2°55.298 -999 -999 -999 -999 -999
2008-05-06 08:40:36 51°14.243 2°55.289 -999 -999 -999 -999 -999
2008-05-06 08:40:42 51°14.253 2°55.275 -999 -999 -999 -999 -999
2008-05-06 08:40:47 51°14.26 2°55.264 -999 -999 -999 -999 -999
2008-05-06 08:40:52 51°14.268 2°55.253 -999 -999 -999 -999 -999
2008-05-06 08:40:57 51°14.275 2°55.241 -999 -999 -999 -999 -999
2008-05-06 08:41:02 51°14.283 2°55.23 -999 -999 -999 -999 -999
2008-05-06 08:41:07 51°14.29 2°55.218 -999 -999 -999 -999 -999
2008-05-06 08:41:12 51°14.297 2°55.207 -999 -999 -999 -999 -999
2008-05-06 08:41:17 51°14.304 2°55.196 -999 -999 -999 -999 -999
2008-05-06 08:41:21 51°14.31 2°55.186 -999 -999 -999 -999 -999
2008-05-06 08:41:27 51°14.318 2°55.172 -999 -999 -999 -999 -999
2008-05-06 08:41:32 51°14.325 2°55.161 -999 -999 -999 -999 -999
2008-05-06 08:41:37 51°14.331 2°55.149 -999 -999 -999 -999 -999
2008-05-06 08:41:42 51°14.338 2°55.137 -999 -999 -999 -999 -999
2008-05-06 08:41:47 51°14.344 2°55.124 -999 -999 -999 -999 -999
2008-05-06 08:41:52 51°14.35 2°55.111 -999 -999 -999 -999 -999
2008-05-06 08:41:57 51°14.357 2°55.098 -999 -999 -999 -999 -999
2008-05-06 08:42:02 51°14.363 2°55.083 -999 -999 -999 -999 -999
2008-05-06 08:42:07 51°14.369 2°55.069 -999 -999 -999 -999 -999
2008-05-06 08:42:12 51°14.375 2°55.053 -999 -999 -999 -999 -999
2008-05-06 08:42:17 51°14.38 2°55.037 -999 -999 -999 -999 -999
2008-05-06 08:42:22 51°14.386 2°55.02 -999 -999 -999 -999 -999
2008-05-06 08:42:27 51°14.392 2°55.002 -999 -999 -999 -999 -999
2008-05-06 08:42:32 51°14.398 2°54.983 -999 -999 -999 -999 -999
2008-05-06 08:42:37 51°14.404 2°54.964 -999 -999 -999 -999 -999
2008-05-06 08:42:42 51°14.41 2°54.944 -999 -999 -999 -999 -999
2008-05-06 08:42:47 51°14.417 2°54.924 -999 -999 -999 -999 -999
2008-05-06 08:42:52 51°14.424 2°54.902 -999 -999 -999 -999 -999
2008-05-06 08:42:56 51°14.43 2°54.885 -999 -999 -999 -999 -999
2008-05-06 08:43:02 51°14.439 2°54.859 -999 -999 -999 -999 -999
2008-05-06 08:43:07 51°14.447 2°54.837 -999 -999 -999 -999 -999
2008-05-06 08:43:12 51°14.454 2°54.813 -999 -999 -999 -999 -999
2008-05-06 08:43:17 51°14.461 2°54.788 -999 -999 -999 -999 -999
2008-05-06 08:43:22 51°14.468 2°54.764 -999 -999 -999 -999 -999
2008-05-06 08:43:27 51°14.474 2°54.738 -999 -999 -999 -999 -999
2008-05-06 08:43:32 51°14.481 2°54.712 -999 -999 -999 -999 -999
2008-05-06 08:43:37 51°14.487 2°54.686 -999 -999 -999 -999 -999
2008-05-06 08:43:41 51°14.492 2°54.665 -999 -999 -999 -999 -999
2008-05-06 08:43:47 51°14.499 2°54.633 -999 -999 -999 -999 -999
2008-05-06 08:43:52 51°14.505 2°54.606 -999 -999 -999 -999 -999
2008-05-06 08:43:57 51°14.511 2°54.579 -999 -999 -999 -999 -999
2008-05-06 08:44:02 51°14.516 2°54.552 -999 -999 -999 -999 -999
2008-05-06 08:44:07 51°14.521 2°54.525 -999 -999 -999 -999 -999
2008-05-06 08:44:12 51°14.526 2°54.497 -999 -999 -999 -999 -999
2008-05-06 08:44:17 51°14.532 2°54.469 -999 -999 -999 -999 -999
2008-05-06 08:44:22 51°14.536 2°54.442 -999 -999 -999 -999 -999
2008-05-06 08:44:27 51°14.541 2°54.414 -999 -999 -999 -999 -999
2008-05-06 08:44:32 51°14.546 2°54.386 -999 -999 -999 -999 -999
2008-05-06 08:44:37 51°14.549 2°54.357 -999 -999 -999 -999 -999
2008-05-06 08:44:42 51°14.553 2°54.329 -999 -999 -999 -999 -999
2008-05-06 08:44:47 51°14.557 2°54.3 -999 -999 -999 -999 -999
2008-05-06 08:44:52 51°14.56 2°54.272 -999 -999 -999 -999 -999
2008-05-06 08:44:57 51°14.563 2°54.243 -999 -999 -999 -999 -999
2008-05-06 08:45:02 51°14.566 2°54.214 -999 -999 -999 -999 -999
2008-05-06 08:45:07 51°14.569 2°54.185 -999 -999 -999 -999 -999
2008-05-06 08:45:12 51°14.572 2°54.156 -999 -999 -999 -999 -999
2008-05-06 08:45:17 51°14.575 2°54.127 -999 -999 -999 -999 -999
2008-05-06 08:45:22 51°14.578 2°54.098 -999 -999 -999 -999 -999
2008-05-06 08:45:27 51°14.581 2°54.069 -999 -999 -999 -999 -999
2008-05-06 08:45:32 51°14.584 2°54.04 -999 -999 -999 -999 -999
2008-05-06 08:45:37 51°14.587 2°54.012 -999 -999 -999 -999 -999
2008-05-06 08:45:41 51°14.59 2°53.989 -999 -999 -999 -999 -999
2008-05-06 08:45:47 51°14.593 2°53.954 -999 -999 -999 -999 -999
2008-05-06 08:45:52 51°14.597 2°53.926 -999 -999 -999 -999 -999
2008-05-06 08:45:57 51°14.6 2°53.897 -999 -999 -999 -999 -999
2008-05-06 08:46:02 51°14.602 2°53.869 -999 -999 -999 -999 -999
2008-05-06 08:46:07 51°14.605 2°53.84 -999 -999 -999 -999 -999
2008-05-06 08:46:12 51°14.607 2°53.811 -999 -999 -999 -999 -999
2008-05-06 08:46:17 51°14.609 2°53.783 -999 -999 -999 -999 -999
2008-05-06 08:46:22 51°14.611 2°53.755 -999 -999 -999 -999 -999
2008-05-06 08:46:27 51°14.612 2°53.726 -999 -999 -999 -999 -999
2008-05-06 08:46:32 51°14.614 2°53.698 -999 -999 -999 -999 -999
2008-05-06 08:46:37 51°14.616 2°53.669 -999 -999 -999 -999 -999
2008-05-06 08:46:42 51°14.618 2°53.641 -999 -999 -999 -999 -999
2008-05-06 08:46:47 51°14.619 2°53.613 -999 -999 -999 -999 -999
2008-05-06 08:46:52 51°14.621 2°53.585 -999 -999 -999 -999 -999
2008-05-06 08:46:57 51°14.623 2°53.557 -999 -999 -999 -999 -999
2008-05-06 08:47:02 51°14.624 2°53.529 -999 -999 -999 -999 -999
2008-05-06 08:47:07 51°14.626 2°53.501 -999 -999 -999 -999 -999
2008-05-06 08:47:12 51°14.628 2°53.473 -999 -999 -999 -999 -999
2008-05-06 08:47:16 51°14.629 2°53.451 -999 -999 -999 -999 -999
2008-05-06 08:47:22 51°14.631 2°53.417 -999 -999 -999 -999 -999
2008-05-06 08:47:27 51°14.633 2°53.389 -999 -999 -999 -999 -999
2008-05-06 08:47:32 51°14.634 2°53.36 -999 -999 -999 -999 -999
2008-05-06 08:47:37 51°14.635 2°53.332 -999 -999 -999 -999 -999
2008-05-06 08:47:42 51°14.636 2°53.303 -999 -999 -999 -999 -999
2008-05-06 08:47:47 51°14.637 2°53.275 -999 -999 -999 -999 -999
2008-05-06 08:47:52 51°14.638 2°53.246 -999 -999 -999 -999 -999
2008-05-06 08:47:57 51°14.639 2°53.217 -999 -999 -999 -999 -999
2008-05-06 08:48:02 51°14.64 2°53.189 -999 -999 -999 -999 -999
2008-05-06 08:48:07 51°14.64 2°53.16 -999 -999 -999 -999 -999
2008-05-06 08:48:12 51°14.641 2°53.132 -999 -999 -999 -999 -999
2008-05-06 08:48:17 51°14.642 2°53.103 -999 -999 -999 -999 -999
2008-05-06 08:48:22 51°14.643 2°53.074 -999 -999 -999 -999 -999
2008-05-06 08:48:27 51°14.644 2°53.046 -999 -999 -999 -999 -999
2008-05-06 08:48:32 51°14.645 2°53.017 -999 -999 -999 -999 -999
2008-05-06 08:48:37 51°14.646 2°52.988 -999 -999 -999 -999 -999
2008-05-06 08:48:42 51°14.647 2°52.959 -999 -999 -999 -999 -999
2008-05-06 08:48:47 51°14.647 2°52.93 -999 -999 -999 -999 -999
2008-05-06 08:48:52 51°14.648 2°52.901 -999 -999 -999 -999 -999
2008-05-06 08:48:57 51°14.648 2°52.872 -999 -999 -999 -999 -999
2008-05-06 08:49:02 51°14.648 2°52.843 -999 -999 -999 -999 -999
2008-05-06 08:49:07 51°14.647 2°52.814 -999 -999 -999 -999 -999
2008-05-06 08:49:12 51°14.647 2°52.785 -999 -999 -999 -999 -999
2008-05-06 08:49:17 51°14.647 2°52.755 -999 -999 -999 -999 -999
2008-05-06 08:49:22 51°14.646 2°52.726 -999 -999 -999 -999 -999
2008-05-06 08:49:27 51°14.645 2°52.697 -999 -999 -999 -999 -999
2008-05-06 08:49:32 51°14.644 2°52.668 -999 -999 -999 -999 -999
2008-05-06 08:49:37 51°14.642 2°52.638 -999 -999 -999 -999 -999
2008-05-06 08:49:42 51°14.641 2°52.609 -999 -999 -999 -999 -999
2008-05-06 08:49:47 51°14.64 2°52.58 -999 -999 -999 -999 -999
2008-05-06 08:49:52 51°14.638 2°52.551 -999 -999 -999 -999 -999
2008-05-06 08:49:57 51°14.636 2°52.522 -999 -999 -999 -999 -999
2008-05-06 08:50:02 51°14.634 2°52.493 -999 -999 -999 -999 -999
2008-05-06 08:50:07 51°14.632 2°52.463 -999 -999 -999 -999 -999
2008-05-06 08:50:12 51°14.629 2°52.434 -999 -999 -999 -999 -999
2008-05-06 08:50:17 51°14.627 2°52.406 -999 -999 -999 -999 -999
2008-05-06 08:50:22 51°14.624 2°52.377 -999 -999 -999 -999 -999
2008-05-06 08:50:27 51°14.621 2°52.348 -999 -999 -999 -999 -999
2008-05-06 08:50:32 51°14.618 2°52.319 -999 -999 -999 -999 -999
2008-05-06 08:50:37 51°14.615 2°52.29 -999 -999 -999 -999 -999
2008-05-06 08:50:42 51°14.612 2°52.261 -999 -999 -999 -999 -999
2008-05-06 08:50:47 51°14.609 2°52.231 -999 -999 -999 -999 -999
2008-05-06 08:50:52 51°14.606 2°52.202 -999 -999 -999 -999 -999
2008-05-06 08:50:57 51°14.603 2°52.173 -999 -999 -999 -999 -999
2008-05-06 08:51:02 51°14.6 2°52.144 -999 -999 -999 -999 -999
2008-05-06 08:51:07 51°14.598 2°52.115 -999 -999 -999 -999 -999
2008-05-06 08:51:12 51°14.595 2°52.086 -999 -999 -999 -999 -999
2008-05-06 08:51:17 51°14.592 2°52.057 -999 -999 -999 -999 -999
2008-05-06 08:51:22 51°14.589 2°52.027 -999 -999 -999 -999 -999
2008-05-06 08:51:27 51°14.586 2°51.998 -999 -999 -999 -999 -999
2008-05-06 08:51:32 51°14.584 2°51.969 -999 -999 -999 -999 -999
2008-05-06 08:51:37 51°14.581 2°51.94 -999 -999 -999 -999 -999
2008-05-06 08:51:42 51°14.578 2°51.911 -999 -999 -999 -999 -999
2008-05-06 08:51:47 51°14.575 2°51.882 -999 -999 -999 -999 -999
2008-05-06 08:51:52 51°14.573 2°51.853 -999 -999 -999 -999 -999
2008-05-06 08:51:57 51°14.57 2°51.824 -999 -999 -999 -999 -999
2008-05-06 08:52:02 51°14.567 2°51.795 -999 -999 -999 -999 -999
2008-05-06 08:52:07 51°14.565 2°51.766 -999 -999 -999 -999 -999
2008-05-06 08:52:12 51°14.562 2°51.737 -999 -999 -999 -999 -999
2008-05-06 08:52:17 51°14.56 2°51.708 -999 -999 -999 -999 -999
2008-05-06 08:52:22 51°14.557 2°51.679 -999 -999 -999 -999 -999
2008-05-06 08:52:27 51°14.555 2°51.65 -999 -999 -999 -999 -999
2008-05-06 08:52:32 51°14.552 2°51.621 -999 -999 -999 -999 -999
2008-05-06 08:52:37 51°14.549 2°51.591 -999 -999 -999 -999 -999
2008-05-06 08:52:42 51°14.547 2°51.562 -999 -999 -999 -999 -999
2008-05-06 08:52:47 51°14.544 2°51.533 -999 -999 -999 -999 -999
2008-05-06 08:52:52 51°14.542 2°51.504 -999 -999 -999 -999 -999
2008-05-06 08:52:57 51°14.54 2°51.475 -999 -999 -999 -999 -999
2008-05-06 08:53:02 51°14.537 2°51.447 -999 -999 -999 -999 -999
2008-05-06 08:53:07 51°14.535 2°51.422 -999 -999 -999 -999 -999
2008-05-06 08:53:12 51°14.532 2°51.397 -999 -999 -999 -999 -999
2008-05-06 08:53:17 51°14.53 2°51.375 -999 -999 -999 -999 -999
2008-05-06 08:53:22 51°14.528 2°51.354 -999 -999 -999 -999 -999
2008-05-06 08:53:27 51°14.526 2°51.334 -999 -999 -999 -999 -999
2008-05-06 08:53:32 51°14.523 2°51.316 -999 -999 -999 -999 -999
2008-05-06 08:53:37 51°14.52 2°51.3 -999 -999 -999 -999 -999
2008-05-06 08:53:42 51°14.517 2°51.285 -999 -999 -999 -999 -999
2008-05-06 08:53:47 51°14.514 2°51.27 -999 -999 -999 -999 -999
2008-05-06 08:53:52 51°14.511 2°51.257 -999 -999 -999 -999 -999
2008-05-06 08:53:57 51°14.508 2°51.245 -999 -999 -999 -999 -999
2008-05-06 08:54:02 51°14.507 2°51.233 -999 -999 -999 -999 -999
2008-05-06 08:54:07 51°14.505 2°51.222 -999 -999 -999 -999 -999
2008-05-06 08:54:12 51°14.504 2°51.213 -999 -999 -999 -999 -999
2008-05-06 08:54:17 51°14.503 2°51.204 -999 -999 -999 -999 -999
2008-05-06 08:54:22 51°14.502 2°51.195 -999 -999 -999 -999 -999
2008-05-06 08:54:27 51°14.501 2°51.187 -999 -999 -999 -999 -999
2008-05-06 08:54:32 51°14.5 2°51.18 -999 -999 -999 -999 -999
2008-05-06 08:54:37 51°14.499 2°51.172 -999 -999 -999 -999 -999
2008-05-06 08:54:42 51°14.498 2°51.165 -999 -999 -999 -999 -999
2008-05-06 08:54:47 51°14.496 2°51.158 -999 -999 -999 -999 -999
2008-05-06 08:54:52 51°14.495 2°51.151 -999 -999 -999 -999 -999
2008-05-06 08:54:57 51°14.494 2°51.144 -999 -999 -999 -999 -999
2008-05-06 08:55:02 51°14.493 2°51.137 -999 -999 -999 -999 -999
2008-05-06 08:55:07 51°14.491 2°51.131 -999 -999 -999 -999 -999
2008-05-06 08:55:12 51°14.49 2°51.124 -999 -999 -999 -999 -999
2008-05-06 08:55:17 51°14.489 2°51.118 -999 -999 -999 -999 -999
2008-05-06 08:55:22 51°14.487 2°51.112 -999 -999 -999 -999 -999
2008-05-06 08:55:27 51°14.486 2°51.106 -999 -999 -999 -999 -999
2008-05-06 08:55:32 51°14.485 2°51.1 -999 -999 -999 -999 -999
2008-05-06 08:55:37 51°14.483 2°51.093 -999 -999 -999 -999 -999
2008-05-06 08:55:42 51°14.482 2°51.088 -999 -999 -999 -999 -999
2008-05-06 08:55:47 51°14.481 2°51.082 -999 -999 -999 -999 -999
2008-05-06 08:55:52 51°14.479 2°51.076 -999 -999 -999 -999 -999
2008-05-06 08:55:57 51°14.478 2°51.07 -999 -999 -999 -999 -999
2008-05-06 08:56:02 51°14.477 2°51.065 -999 -999 -999 -999 -999
2008-05-06 08:56:07 51°14.476 2°51.059 -999 -999 -999 -999 -999
2008-05-06 08:56:12 51°14.474 2°51.053 -999 -999 -999 -999 -999
2008-05-06 08:56:17 51°14.473 2°51.046 -999 -999 -999 -999 -999
2008-05-06 08:56:22 51°14.472 2°51.039 -999 -999 -999 -999 -999
2008-05-06 08:56:27 51°14.47 2°51.031 -999 -999 -999 -999 -999
2008-05-06 08:56:32 51°14.469 2°51.023 -999 -999 -999 -999 -999
2008-05-06 08:56:36 51°14.468 2°51.015 -999 -999 -999 -999 -999
2008-05-06 08:56:42 51°14.466 2°51.004 -999 -999 -999 -999 -999
2008-05-06 08:56:47 51°14.464 2°50.994 -999 -999 -999 -999 -999
2008-05-06 08:56:52 51°14.463 2°50.984 -999 -999 -999 -999 -999
2008-05-06 08:56:57 51°14.461 2°50.974 -999 -999 -999 -999 -999
2008-05-06 08:57:02 51°14.46 2°50.964 -999 -999 -999 -999 -999
2008-05-06 08:57:07 51°14.459 2°50.954 -999 -999 -999 -999 -999
2008-05-06 08:57:12 51°14.458 2°50.944 -999 -999 -999 -999 -999
2008-05-06 08:57:17 51°14.457 2°50.935 -999 -999 -999 -999 -999
2008-05-06 08:57:21 51°14.456 2°50.927 -999 -999 -999 -999 -999
2008-05-06 08:57:27 51°14.455 2°50.916 -999 -999 -999 -999 -999
2008-05-06 08:57:32 51°14.455 2°50.907 -999 -999 -999 -999 -999
2008-05-06 08:57:37 51°14.454 2°50.898 -999 -999 -999 -999 -999
2008-05-06 08:57:42 51°14.454 2°50.89 -999 -999 -999 -999 -999
2008-05-06 08:57:47 51°14.453 2°50.881 -999 -999 -999 -999 -999
2008-05-06 08:57:52 51°14.453 2°50.873 -999 -999 -999 -999 -999
2008-05-06 08:57:57 51°14.452 2°50.865 -999 -999 -999 -999 -999
2008-05-06 08:58:02 51°14.451 2°50.856 -999 -999 -999 -999 -999
2008-05-06 08:58:07 51°14.451 2°50.849 -999 -999 -999 -999 -999
2008-05-06 08:58:12 51°14.451 2°50.841 -999 -999 -999 -999 -999
2008-05-06 08:58:17 51°14.45 2°50.833 -999 -999 -999 -999 -999
2008-05-06 08:58:22 51°14.45 2°50.826 -999 -999 -999 -999 -999
2008-05-06 08:58:27 51°14.449 2°50.818 -999 -999 -999 -999 -999
2008-05-06 08:58:32 51°14.449 2°50.811 -999 -999 -999 -999 -999
2008-05-06 08:58:37 51°14.448 2°50.804 -999 -999 -999 -999 -999
2008-05-06 08:58:42 51°14.448 2°50.796 -999 -999 -999 -999 -999
2008-05-06 08:58:47 51°14.448 2°50.789 -999 -999 -999 -999 -999
2008-05-06 08:58:52 51°14.447 2°50.782 -999 -999 -999 -999 -999
2008-05-06 08:58:57 51°14.447 2°50.775 -999 -999 -999 -999 -999
2008-05-06 08:59:02 51°14.447 2°50.769 -999 -999 -999 -999 -999
2008-05-06 08:59:07 51°14.446 2°50.762 -999 -999 -999 -999 -999
2008-05-06 08:59:12 51°14.446 2°50.756 -999 -999 -999 -999 -999
2008-05-06 08:59:17 51°14.445 2°50.749 -999 -999 -999 -999 -999
2008-05-06 08:59:21 51°14.445 2°50.744 -999 -999 -999 -999 -999
2008-05-06 08:59:27 51°14.445 2°50.736 -999 -999 -999 -999 -999
2008-05-06 08:59:32 51°14.444 2°50.73 -999 -999 -999 -999 -999
2008-05-06 08:59:37 51°14.444 2°50.724 -999 -999 -999 -999 -999
2008-05-06 08:59:42 51°14.443 2°50.718 -999 -999 -999 -999 -999
2008-05-06 08:59:47 51°14.443 2°50.712 -999 -999 -999 -999 -999
2008-05-06 08:59:52 51°14.442 2°50.705 -999 -999 -999 -999 -999
2008-05-06 08:59:57 51°14.442 2°50.699 -999 -999 -999 -999 -999
2008-05-06 09:00:02 51°14.441 2°50.692 -999 -999 -999 -999 -999
2008-05-06 09:00:07 51°14.441 2°50.685 -999 -999 -999 -999 -999
2008-05-06 09:00:12 51°14.44 2°50.679 -999 -999 -999 -999 -999
2008-05-06 09:00:17 51°14.44 2°50.672 -999 -999 -999 -999 -999
2008-05-06 09:00:22 51°14.439 2°50.666 -999 -999 -999 -999 -999
2008-05-06 09:00:27 51°14.438 2°50.659 -999 -999 -999 -999 -999
2008-05-06 09:00:32 51°14.437 2°50.652 -999 -999 -999 -999 -999
2008-05-06 09:00:37 51°14.437 2°50.645 -999 -999 -999 -999 -999
2008-05-06 09:00:42 51°14.436 2°50.638 -999 -999 -999 -999 -999
2008-05-06 09:00:47 51°14.435 2°50.631 -999 -999 -999 -999 -999
2008-05-06 09:00:52 51°14.434 2°50.624 -999 -999 -999 -999 -999
2008-05-06 09:00:57 51°14.433 2°50.618 -999 -999 -999 -999 -999
2008-05-06 09:01:02 51°14.432 2°50.61 -999 -999 -999 -999 -999
2008-05-06 09:01:07 51°14.431 2°50.603 -999 -999 -999 -999 -999
2008-05-06 09:01:12 51°14.431 2°50.596 -999 -999 -999 -999 -999
2008-05-06 09:01:17 51°14.43 2°50.589 -999 -999 -999 -999 -999
2008-05-06 09:01:22 51°14.429 2°50.582 -999 -999 -999 -999 -999
2008-05-06 09:01:27 51°14.428 2°50.575 -999 -999 -999 -999 -999
2008-05-06 09:01:32 51°14.427 2°50.568 -999 -999 -999 -999 -999
2008-05-06 09:01:37 51°14.426 2°50.561 -999 -999 -999 -999 -999
2008-05-06 09:01:42 51°14.426 2°50.554 -999 -999 -999 -999 -999
2008-05-06 09:01:47 51°14.425 2°50.546 -999 -999 -999 -999 -999
2008-05-06 09:01:52 51°14.424 2°50.539 -999 -999 -999 -999 -999
2008-05-06 09:01:57 51°14.423 2°50.532 -999 -999 -999 -999 -999
2008-05-06 09:02:02 51°14.422 2°50.525 -999 -999 -999 -999 -999
2008-05-06 09:02:07 51°14.422 2°50.518 -999 -999 -999 -999 -999
2008-05-06 09:02:12 51°14.421 2°50.51 -999 -999 -999 -999 -999
2008-05-06 09:02:17 51°14.42 2°50.503 -999 -999 -999 -999 -999
2008-05-06 09:02:22 51°14.419 2°50.496 -999 -999 -999 -999 -999
2008-05-06 09:02:27 51°14.419 2°50.489 -999 -999 -999 -999 -999
2008-05-06 09:02:32 51°14.418 2°50.482 -999 -999 -999 -999 -999
2008-05-06 09:02:37 51°14.417 2°50.475 -999 -999 -999 -999 -999
2008-05-06 09:02:42 51°14.416 2°50.467 -999 -999 -999 -999 -999
2008-05-06 09:02:47 51°14.416 2°50.46 -999 -999 -999 -999 -999
2008-05-06 09:02:52 51°14.415 2°50.453 -999 -999 -999 -999 -999
2008-05-06 09:02:57 51°14.414 2°50.446 -999 -999 -999 -999 -999
2008-05-06 09:03:02 51°14.413 2°50.439 -999 -999 -999 -999 -999
2008-05-06 09:03:07 51°14.412 2°50.431 -999 -999 -999 -999 -999
2008-05-06 09:03:12 51°14.412 2°50.424 -999 -999 -999 -999 -999
2008-05-06 09:03:17 51°14.411 2°50.417 -999 -999 -999 -999 -999
2008-05-06 09:03:22 51°14.41 2°50.41 -999 -999 -999 -999 -999
2008-05-06 09:03:27 51°14.409 2°50.402 -999 -999 -999 -999 -999
2008-05-06 09:03:32 51°14.408 2°50.395 -999 -999 -999 -999 -999
2008-05-06 09:03:37 51°14.407 2°50.388 -999 -999 -999 -999 -999
2008-05-06 09:03:42 51°14.406 2°50.381 -999 -999 -999 -999 -999
2008-05-06 09:03:47 51°14.405 2°50.373 -999 -999 -999 -999 -999
2008-05-06 09:03:52 51°14.404 2°50.366 -999 -999 -999 -999 -999
2008-05-06 09:03:57 51°14.403 2°50.359 -999 -999 -999 -999 -999
2008-05-06 09:04:02 51°14.402 2°50.352 -999 -999 -999 -999 -999
2008-05-06 09:04:07 51°14.4 2°50.345 -999 -999 -999 -999 -999
2008-05-06 09:04:12 51°14.399 2°50.337 -999 -999 -999 -999 -999
2008-05-06 09:04:17 51°14.398 2°50.33 -999 -999 -999 -999 -999
2008-05-06 09:04:22 51°14.397 2°50.323 -999 -999 -999 -999 -999
2008-05-06 09:04:27 51°14.396 2°50.316 -999 -999 -999 -999 -999
2008-05-06 09:04:32 51°14.395 2°50.309 -999 -999 -999 -999 -999
2008-05-06 09:04:37 51°14.394 2°50.302 -999 -999 -999 -999 -999
2008-05-06 09:04:42 51°14.393 2°50.295 -999 -999 -999 -999 -999
2008-05-06 09:04:47 51°14.391 2°50.288 -999 -999 -999 -999 -999
2008-05-06 09:04:52 51°14.39 2°50.281 -999 -999 -999 -999 -999
2008-05-06 09:04:57 51°14.389 2°50.274 -999 -999 -999 -999 -999
2008-05-06 09:05:02 51°14.388 2°50.267 -999 -999 -999 -999 -999
2008-05-06 09:05:07 51°14.387 2°50.26 -999 -999 -999 -999 -999
2008-05-06 09:05:12 51°14.386 2°50.253 -999 -999 -999 -999 -999
2008-05-06 09:05:17 51°14.384 2°50.246 -999 -999 -999 -999 -999
2008-05-06 09:05:22 51°14.383 2°50.239 -999 -999 -999 -999 -999
2008-05-06 09:05:27 51°14.382 2°50.232 -999 -999 -999 -999 -999
2008-05-06 09:05:32 51°14.381 2°50.225 -999 -999 -999 -999 -999
2008-05-06 09:05:37 51°14.379 2°50.218 -999 -999 -999 -999 -999
2008-05-06 09:05:42 51°14.378 2°50.211 -999 -999 -999 -999 -999
2008-05-06 09:05:47 51°14.377 2°50.204 -999 -999 -999 -999 -999
2008-05-06 09:05:52 51°14.376 2°50.197 -999 -999 -999 -999 -999
2008-05-06 09:05:57 51°14.374 2°50.19 -999 -999 -999 -999 -999
2008-05-06 09:06:02 51°14.373 2°50.183 -999 -999 -999 -999 -999
2008-05-06 09:06:07 51°14.372 2°50.176 -999 -999 -999 -999 -999
2008-05-06 09:06:12 51°14.37 2°50.169 -999 -999 -999 -999 -999
2008-05-06 09:06:17 51°14.369 2°50.162 -999 -999 -999 -999 -999
2008-05-06 09:06:22 51°14.368 2°50.155 -999 -999 -999 -999 -999
2008-05-06 09:06:27 51°14.367 2°50.148 -999 -999 -999 -999 -999
2008-05-06 09:06:32 51°14.365 2°50.142 -999 -999 -999 -999 -999
2008-05-06 09:06:37 51°14.364 2°50.135 -999 -999 -999 -999 -999
2008-05-06 09:06:42 51°14.363 2°50.127 -999 -999 -999 -999 -999
2008-05-06 09:06:47 51°14.361 2°50.121 -999 -999 -999 -999 -999
2008-05-06 09:06:52 51°14.36 2°50.114 -999 -999 -999 -999 -999
2008-05-06 09:06:57 51°14.358 2°50.107 -999 -999 -999 -999 -999
2008-05-06 09:07:02 51°14.357 2°50.1 -999 -999 -999 -999 -999
2008-05-06 09:07:07 51°14.356 2°50.093 -999 -999 -999 -999 -999
2008-05-06 09:07:12 51°14.354 2°50.086 -999 -999 -999 -999 -999
2008-05-06 09:07:17 51°14.353 2°50.079 -999 -999 -999 -999 -999
2008-05-06 09:07:22 51°14.352 2°50.072 -999 -999 -999 -999 -999
2008-05-06 09:07:27 51°14.35 2°50.065 -999 -999 -999 -999 -999
2008-05-06 09:07:32 51°14.349 2°50.058 -999 -999 -999 -999 -999
2008-05-06 09:07:37 51°14.347 2°50.051 -999 -999 -999 -999 -999
2008-05-06 09:07:42 51°14.346 2°50.044 -999 -999 -999 -999 -999
2008-05-06 09:07:47 51°14.345 2°50.037 -999 -999 -999 -999 -999
2008-05-06 09:07:52 51°14.343 2°50.031 -999 -999 -999 -999 -999
2008-05-06 09:07:57 51°14.342 2°50.024 -999 -999 -999 -999 -999
2008-05-06 09:08:02 51°14.34 2°50.017 -999 -999 -999 -999 -999
2008-05-06 09:08:07 51°14.339 2°50.01 -999 -999 -999 -999 -999
2008-05-06 09:08:12 51°14.337 2°50.003 -999 -999 -999 -999 -999
2008-05-06 09:08:17 51°14.336 2°49.996 -999 -999 -999 -999 -999
2008-05-06 09:08:22 51°14.334 2°49.989 -999 -999 -999 -999 -999
2008-05-06 09:08:27 51°14.333 2°49.982 -999 -999 -999 -999 -999
2008-05-06 09:08:32 51°14.331 2°49.975 -999 -999 -999 -999 -999
2008-05-06 09:08:37 51°14.33 2°49.968 -999 -999 -999 -999 -999
2008-05-06 09:08:42 51°14.328 2°49.962 -999 -999 -999 -999 -999
2008-05-06 09:08:47 51°14.327 2°49.955 -999 -999 -999 -999 -999
2008-05-06 09:08:52 51°14.325 2°49.948 -999 -999 -999 -999 -999
2008-05-06 09:08:57 51°14.323 2°49.941 -999 -999 -999 -999 -999
2008-05-06 09:09:02 51°14.322 2°49.934 -999 -999 -999 -999 -999
2008-05-06 09:09:07 51°14.32 2°49.927 -999 -999 -999 -999 -999
2008-05-06 09:09:12 51°14.319 2°49.92 -999 -999 -999 -999 -999
2008-05-06 09:09:17 51°14.317 2°49.913 -999 -999 -999 -999 -999
2008-05-06 09:09:22 51°14.316 2°49.907 -999 -999 -999 -999 -999
2008-05-06 09:09:27 51°14.314 2°49.9 -999 -999 -999 -999 -999
2008-05-06 09:09:32 51°14.313 2°49.893 -999 -999 -999 -999 -999
2008-05-06 09:09:37 51°14.311 2°49.886 -999 -999 -999 -999 -999
2008-05-06 09:09:42 51°14.31 2°49.879 -999 -999 -999 -999 -999
2008-05-06 09:09:47 51°14.308 2°49.872 -999 -999 -999 -999 -999
2008-05-06 09:09:52 51°14.306 2°49.865 -999 -999 -999 -999 -999
2008-05-06 09:09:57 51°14.305 2°49.859 -999 -999 -999 -999 -999
2008-05-06 09:10:02 51°14.303 2°49.852 -999 -999 -999 -999 -999
2008-05-06 09:10:07 51°14.301 2°49.845 -999 -999 -999 -999 -999
2008-05-06 09:10:12 51°14.3 2°49.838 -999 -999 -999 -999 -999
2008-05-06 09:10:17 51°14.298 2°49.831 -999 -999 -999 -999 -999
2008-05-06 09:10:22 51°14.297 2°49.824 -999 -999 -999 -999 -999
2008-05-06 09:10:27 51°14.295 2°49.818 -999 -999 -999 -999 -999
2008-05-06 09:10:32 51°14.293 2°49.811 -999 -999 -999 -999 -999
2008-05-06 09:10:37 51°14.292 2°49.804 -999 -999 -999 -999 -999
2008-05-06 09:10:42 51°14.29 2°49.797 -999 -999 -999 -999 -999
2008-05-06 09:10:47 51°14.288 2°49.79 -999 -999 -999 -999 -999
2008-05-06 09:10:52 51°14.286 2°49.784 -999 -999 -999 -999 -999
2008-05-06 09:10:57 51°14.285 2°49.777 -999 -999 -999 -999 -999
2008-05-06 09:11:02 51°14.283 2°49.77 -999 -999 -999 -999 -999
2008-05-06 09:11:07 51°14.281 2°49.763 -999 -999 -999 -999 -999
2008-05-06 09:11:12 51°14.279 2°49.756 -999 -999 -999 -999 -999
2008-05-06 09:11:17 51°14.278 2°49.75 -999 -999 -999 -999 -999
2008-05-06 09:11:22 51°14.276 2°49.743 -999 -999 -999 -999 -999
2008-05-06 09:11:27 51°14.274 2°49.736 -999 -999 -999 -999 -999
2008-05-06 09:11:32 51°14.272 2°49.729 -999 -999 -999 -999 -999
2008-05-06 09:11:37 51°14.271 2°49.723 -999 -999 -999 -999 -999
2008-05-06 09:11:42 51°14.269 2°49.716 -999 -999 -999 -999 -999
2008-05-06 09:11:47 51°14.267 2°49.709 -999 -999 -999 -999 -999
2008-05-06 09:11:52 51°14.265 2°49.702 -999 -999 -999 -999 -999
2008-05-06 09:11:57 51°14.264 2°49.696 -999 -999 -999 -999 -999
2008-05-06 09:12:02 51°14.262 2°49.689 -999 -999 -999 -999 -999
2008-05-06 09:12:07 51°14.26 2°49.682 -999 -999 -999 -999 -999
2008-05-06 09:12:12 51°14.259 2°49.676 -999 -999 -999 -999 -999
2008-05-06 09:12:17 51°14.257 2°49.669 -999 -999 -999 -999 -999
2008-05-06 09:12:22 51°14.255 2°49.662 -999 -999 -999 -999 -999
2008-05-06 09:12:27 51°14.253 2°49.656 -999 -999 -999 -999 -999
2008-05-06 09:12:32 51°14.251 2°49.649 -999 -999 -999 -999 -999
2008-05-06 09:12:37 51°14.25 2°49.642 -999 -999 -999 -999 -999
2008-05-06 09:12:42 51°14.248 2°49.636 -999 -999 -999 -999 -999
2008-05-06 09:12:47 51°14.246 2°49.629 -999 -999 -999 -999 -999
2008-05-06 09:12:52 51°14.244 2°49.622 -999 -999 -999 -999 -999
2008-05-06 09:12:57 51°14.243 2°49.616 -999 -999 -999 -999 -999
2008-05-06 09:13:02 51°14.241 2°49.609 -999 -999 -999 -999 -999
2008-05-06 09:13:07 51°14.239 2°49.602 -999 -999 -999 -999 -999
2008-05-06 09:13:12 51°14.237 2°49.596 -999 -999 -999 -999 -999
2008-05-06 09:13:17 51°14.235 2°49.589 -999 -999 -999 -999 -999
2008-05-06 09:13:22 51°14.234 2°49.583 -999 -999 -999 -999 -999
2008-05-06 09:13:27 51°14.232 2°49.576 -999 -999 -999 -999 -999
2008-05-06 09:13:32 51°14.23 2°49.569 -999 -999 -999 -999 -999
2008-05-06 09:13:37 51°14.228 2°49.563 -999 -999 -999 -999 -999
2008-05-06 09:13:42 51°14.226 2°49.556 -999 -999 -999 -999 -999
2008-05-06 09:13:47 51°14.224 2°49.549 -999 -999 -999 -999 -999
2008-05-06 09:13:52 51°14.223 2°49.543 -999 -999 -999 -999 -999
2008-05-06 09:13:57 51°14.221 2°49.536 -999 -999 -999 -999 -999
2008-05-06 09:14:02 51°14.219 2°49.53 -999 -999 -999 -999 -999
2008-05-06 09:14:07 51°14.217 2°49.523 -999 -999 -999 -999 -999
2008-05-06 09:14:12 51°14.216 2°49.517 -999 -999 -999 -999 -999
2008-05-06 09:14:17 51°14.214 2°49.51 -999 -999 -999 -999 -999
2008-05-06 09:14:22 51°14.212 2°49.503 -999 -999 -999 -999 -999
2008-05-06 09:14:27 51°14.21 2°49.497 -999 -999 -999 -999 -999
2008-05-06 09:14:32 51°14.208 2°49.49 -999 -999 -999 -999 -999
2008-05-06 09:14:37 51°14.206 2°49.484 -999 -999 -999 -999 -999
2008-05-06 09:14:42 51°14.205 2°49.477 -999 -999 -999 -999 -999
2008-05-06 09:14:47 51°14.203 2°49.47 -999 -999 -999 -999 -999
2008-05-06 09:14:52 51°14.201 2°49.464 -999 -999 -999 -999 -999
2008-05-06 09:14:57 51°14.199 2°49.457 -999 -999 -999 -999 -999
2008-05-06 09:15:02 51°14.197 2°49.451 -999 -999 -999 -999 -999
2008-05-06 09:15:07 51°14.195 2°49.444 -999 -999 -999 -999 -999
2008-05-06 09:15:12 51°14.194 2°49.438 -999 -999 -999 -999 -999
2008-05-06 09:15:17 51°14.192 2°49.431 -999 -999 -999 -999 -999
2008-05-06 09:15:21 51°14.19 2°49.426 -999 -999 -999 -999 -999
2008-05-06 09:15:27 51°14.188 2°49.418 -999 -999 -999 -999 -999
2008-05-06 09:15:32 51°14.186 2°49.411 -999 -999 -999 -999 -999
2008-05-06 09:15:37 51°14.185 2°49.405 -999 -999 -999 -999 -999
2008-05-06 09:15:42 51°14.183 2°49.398 -999 -999 -999 -999 -999
2008-05-06 09:15:47 51°14.181 2°49.392 -999 -999 -999 -999 -999
2008-05-06 09:15:52 51°14.179 2°49.385 -999 -999 -999 -999 -999
2008-05-06 09:15:57 51°14.177 2°49.378 -999 -999 -999 -999 -999
2008-05-06 09:16:02 51°14.176 2°49.372 -999 -999 -999 -999 -999
2008-05-06 09:16:07 51°14.174 2°49.365 -999 -999 -999 -999 -999
2008-05-06 09:16:12 51°14.172 2°49.359 -999 -999 -999 -999 -999
2008-05-06 09:16:17 51°14.17 2°49.352 -999 -999 -999 -999 -999
2008-05-06 09:16:22 51°14.168 2°49.345 -999 -999 -999 -999 -999
2008-05-06 09:16:27 51°14.167 2°49.338 -999 -999 -999 -999 -999
2008-05-06 09:16:32 51°14.165 2°49.332 -999 -999 -999 -999 -999
2008-05-06 09:16:37 51°14.163 2°49.325 -999 -999 -999 -999 -999
2008-05-06 09:16:42 51°14.161 2°49.319 -999 -999 -999 -999 -999
2008-05-06 09:16:47 51°14.16 2°49.312 -999 -999 -999 -999 -999
2008-05-06 09:16:52 51°14.158 2°49.305 -999 -999 -999 -999 -999
2008-05-06 09:16:57 51°14.156 2°49.299 -999 -999 -999 -999 -999
2008-05-06 09:17:02 51°14.154 2°49.292 -999 -999 -999 -999 -999
2008-05-06 09:17:07 51°14.153 2°49.286 -999 -999 -999 -999 -999
2008-05-06 09:17:12 51°14.151 2°49.279 -999 -999 -999 -999 -999
2008-05-06 09:17:17 51°14.149 2°49.272 -999 -999 -999 -999 -999
2008-05-06 09:17:22 51°14.147 2°49.266 -999 -999 -999 -999 -999
2008-05-06 09:17:27 51°14.145 2°49.259 -999 -999 -999 -999 -999
2008-05-06 09:17:32 51°14.144 2°49.253 -999 -999 -999 -999 -999
2008-05-06 09:17:37 51°14.142 2°49.246 -999 -999 -999 -999 -999
2008-05-06 09:17:42 51°14.14 2°49.239 -999 -999 -999 -999 -999
2008-05-06 09:17:47 51°14.139 2°49.233 -999 -999 -999 -999 -999
2008-05-06 09:17:52 51°14.137 2°49.226 -999 -999 -999 -999 -999
2008-05-06 09:17:57 51°14.135 2°49.22 -999 -999 -999 -999 -999
2008-05-06 09:18:02 51°14.133 2°49.213 -999 -999 -999 -999 -999
2008-05-06 09:18:07 51°14.132 2°49.206 -999 -999 -999 -999 -999
2008-05-06 09:18:12 51°14.13 2°49.2 -999 -999 -999 -999 -999
2008-05-06 09:18:17 51°14.128 2°49.193 -999 -999 -999 -999 -999
2008-05-06 09:18:22 51°14.127 2°49.187 -999 -999 -999 -999 -999
2008-05-06 09:18:27 51°14.125 2°49.18 -999 -999 -999 -999 -999
2008-05-06 09:18:32 51°14.123 2°49.173 -999 -999 -999 -999 -999
2008-05-06 09:18:37 51°14.121 2°49.167 -999 -999 -999 -999 -999
2008-05-06 09:18:42 51°14.12 2°49.16 -999 -999 -999 -999 -999
2008-05-06 09:18:47 51°14.118 2°49.153 -999 -999 -999 -999 -999
2008-05-06 09:18:52 51°14.116 2°49.147 -999 -999 -999 -999 -999
2008-05-06 09:18:57 51°14.114 2°49.14 -999 -999 -999 -999 -999
2008-05-06 09:19:02 51°14.113 2°49.134 -999 -999 -999 -999 -999
2008-05-06 09:19:07 51°14.111 2°49.127 -999 -999 -999 -999 -999
2008-05-06 09:19:12 51°14.109 2°49.12 -999 -999 -999 -999 -999
2008-05-06 09:19:17 51°14.108 2°49.114 -999 -999 -999 -999 -999
2008-05-06 09:19:22 51°14.106 2°49.107 -999 -999 -999 -999 -999
2008-05-06 09:19:27 51°14.104 2°49.101 -999 -999 -999 -999 -999
2008-05-06 09:19:32 51°14.103 2°49.094 -999 -999 -999 -999 -999
2008-05-06 09:19:37 51°14.101 2°49.088 -999 -999 -999 -999 -999
2008-05-06 09:19:42 51°14.099 2°49.081 -999 -999 -999 -999 -999
2008-05-06 09:19:47 51°14.097 2°49.074 -999 -999 -999 -999 -999
2008-05-06 09:19:52 51°14.095 2°49.068 -999 -999 -999 -999 -999
2008-05-06 09:19:57 51°14.094 2°49.061 -999 -999 -999 -999 -999
2008-05-06 09:20:02 51°14.092 2°49.055 -999 -999 -999 -999 -999
2008-05-06 09:20:07 51°14.09 2°49.048 -999 -999 -999 -999 -999
2008-05-06 09:20:12 51°14.089 2°49.041 -999 -999 -999 -999 -999
2008-05-06 09:20:17 51°14.087 2°49.035 -999 -999 -999 -999 -999
2008-05-06 09:20:22 51°14.085 2°49.028 -999 -999 -999 -999 -999
2008-05-06 09:20:27 51°14.084 2°49.022 -999 -999 -999 -999 -999
2008-05-06 09:20:32 51°14.082 2°49.015 -999 -999 -999 -999 -999
2008-05-06 09:20:37 51°14.08 2°49.008 -999 -999 -999 -999 -999
2008-05-06 09:20:42 51°14.079 2°49.002 -999 -999 -999 -999 -999
2008-05-06 09:20:47 51°14.077 2°48.995 -999 -999 -999 -999 -999
2008-05-06 09:20:52 51°14.076 2°48.988 -999 -999 -999 -999 -999
2008-05-06 09:20:57 51°14.074 2°48.982 -999 -999 -999 -999 -999
2008-05-06 09:21:02 51°14.072 2°48.975 -999 -999 -999 -999 -999
2008-05-06 09:21:07 51°14.071 2°48.969 -999 -999 -999 -999 -999
2008-05-06 09:21:12 51°14.069 2°48.962 -999 -999 -999 -999 -999
2008-05-06 09:21:17 51°14.068 2°48.955 -999 -999 -999 -999 -999
2008-05-06 09:21:22 51°14.066 2°48.949 -999 -999 -999 -999 -999
2008-05-06 09:21:27 51°14.064 2°48.942 -999 -999 -999 -999 -999
2008-05-06 09:21:32 51°14.063 2°48.935 -999 -999 -999 -999 -999
2008-05-06 09:21:37 51°14.061 2°48.929 -999 -999 -999 -999 -999
2008-05-06 09:21:42 51°14.06 2°48.922 -999 -999 -999 -999 -999
2008-05-06 09:21:47 51°14.058 2°48.916 -999 -999 -999 -999 -999
2008-05-06 09:21:52 51°14.056 2°48.909 -999 -999 -999 -999 -999
2008-05-06 09:21:57 51°14.055 2°48.903 -999 -999 -999 -999 -999
2008-05-06 09:22:02 51°14.053 2°48.896 -999 -999 -999 -999 -999
2008-05-06 09:22:07 51°14.052 2°48.889 -999 -999 -999 -999 -999
2008-05-06 09:22:12 51°14.05 2°48.883 -999 -999 -999 -999 -999
2008-05-06 09:22:17 51°14.049 2°48.876 -999 -999 -999 -999 -999
2008-05-06 09:22:22 51°14.047 2°48.87 -999 -999 -999 -999 -999
2008-05-06 09:22:27 51°14.046 2°48.863 -999 -999 -999 -999 -999
2008-05-06 09:22:32 51°14.044 2°48.856 -999 -999 -999 -999 -999
2008-05-06 09:22:37 51°14.043 2°48.85 -999 -999 -999 -999 -999
2008-05-06 09:22:42 51°14.042 2°48.843 -999 -999 -999 -999 -999
2008-05-06 09:22:47 51°14.04 2°48.837 -999 -999 -999 -999 -999
2008-05-06 09:22:52 51°14.039 2°48.83 -999 -999 -999 -999 -999
2008-05-06 09:22:57 51°14.037 2°48.824 -999 -999 -999 -999 -999
2008-05-06 09:23:02 51°14.036 2°48.817 -999 -999 -999 -999 -999
2008-05-06 09:23:07 51°14.034 2°48.81 -999 -999 -999 -999 -999
2008-05-06 09:23:12 51°14.033 2°48.804 -999 -999 -999 -999 -999
2008-05-06 09:23:17 51°14.031 2°48.797 -999 -999 -999 -999 -999
2008-05-06 09:23:22 51°14.03 2°48.791 -999 -999 -999 -999 -999
2008-05-06 09:23:27 51°14.029 2°48.784 -999 -999 -999 -999 -999
2008-05-06 09:23:32 51°14.027 2°48.778 -999 -999 -999 -999 -999
2008-05-06 09:23:37 51°14.026 2°48.771 -999 -999 -999 -999 -999
2008-05-06 09:23:42 51°14.024 2°48.765 -999 -999 -999 -999 -999
2008-05-06 09:23:47 51°14.023 2°48.758 -999 -999 -999 -999 -999
2008-05-06 09:23:52 51°14.022 2°48.752 -999 -999 -999 -999 -999
2008-05-06 09:23:57 51°14.02 2°48.745 -999 -999 -999 -999 -999
2008-05-06 09:24:02 51°14.019 2°48.739 -999 -999 -999 -999 -999
2008-05-06 09:24:07 51°14.017 2°48.732 -999 -999 -999 -999 -999
2008-05-06 09:24:12 51°14.016 2°48.726 -999 -999 -999 -999 -999
2008-05-06 09:24:17 51°14.015 2°48.719 -999 -999 -999 -999 -999
2008-05-06 09:24:22 51°14.013 2°48.713 -999 -999 -999 -999 -999
2008-05-06 09:24:27 51°14.012 2°48.706 -999 -999 -999 -999 -999
2008-05-06 09:24:32 51°14.011 2°48.699 -999 -999 -999 -999 -999
2008-05-06 09:24:37 51°14.009 2°48.693 -999 -999 -999 -999 -999
2008-05-06 09:24:42 51°14.008 2°48.686 -999 -999 -999 -999 -999
2008-05-06 09:24:47 51°14.007 2°48.68 -999 -999 -999 -999 -999
2008-05-06 09:24:52 51°14.006 2°48.673 -999 -999 -999 -999 -999
2008-05-06 09:24:57 51°14.004 2°48.667 -999 -999 -999 -999 -999
2008-05-06 09:25:02 51°14.003 2°48.66 -999 -999 -999 -999 -999
2008-05-06 09:25:07 51°14.002 2°48.654 -999 -999 -999 -999 -999
2008-05-06 09:25:12 51°14.001 2°48.647 -999 -999 -999 -999 -999
2008-05-06 09:25:17 51°13.999 2°48.641 -999 -999 -999 -999 -999
2008-05-06 09:25:22 51°13.998 2°48.634 -999 -999 -999 -999 -999
2008-05-06 09:25:27 51°13.997 2°48.628 -999 -999 -999 -999 -999
2008-05-06 09:25:32 51°13.995 2°48.621 -999 -999 -999 -999 -999
2008-05-06 09:25:37 51°13.994 2°48.615 -999 -999 -999 -999 -999
2008-05-06 09:25:42 51°13.993 2°48.608 -999 -999 -999 -999 -999
2008-05-06 09:25:47 51°13.992 2°48.601 -999 -999 -999 -999 -999
2008-05-06 09:25:52 51°13.99 2°48.595 -999 -999 -999 -999 -999
2008-05-06 09:25:57 51°13.989 2°48.588 -999 -999 -999 -999 -999
2008-05-06 09:26:02 51°13.988 2°48.582 -999 -999 -999 -999 -999
2008-05-06 09:26:07 51°13.986 2°48.575 -999 -999 -999 -999 -999
2008-05-06 09:26:12 51°13.985 2°48.569 -999 -999 -999 -999 -999
2008-05-06 09:26:17 51°13.984 2°48.562 -999 -999 -999 -999 -999
2008-05-06 09:26:22 51°13.983 2°48.555 -999 -999 -999 -999 -999
2008-05-06 09:26:27 51°13.982 2°48.549 -999 -999 -999 -999 -999
2008-05-06 09:26:32 51°13.98 2°48.542 -999 -999 -999 -999 -999
2008-05-06 09:26:37 51°13.979 2°48.536 -999 -999 -999 -999 -999
2008-05-06 09:26:42 51°13.978 2°48.529 -999 -999 -999 -999 -999
2008-05-06 09:26:47 51°13.977 2°48.523 -999 -999 -999 -999 -999
2008-05-06 09:26:52 51°13.976 2°48.516 -999 -999 -999 -999 -999
2008-05-06 09:26:57 51°13.974 2°48.51 -999 -999 -999 -999 -999
2008-05-06 09:27:02 51°13.973 2°48.504 -999 -999 -999 -999 -999
2008-05-06 09:27:07 51°13.972 2°48.497 -999 -999 -999 -999 -999
2008-05-06 09:27:12 51°13.971 2°48.491 -999 -999 -999 -999 -999
2008-05-06 09:27:17 51°13.969 2°48.485 -999 -999 -999 -999 -999
2008-05-06 09:27:22 51°13.968 2°48.478 -999 -999 -999 -999 -999
2008-05-06 09:27:27 51°13.967 2°48.472 -999 -999 -999 -999 -999
2008-05-06 09:27:32 51°13.966 2°48.466 -999 -999 -999 -999 -999
2008-05-06 09:27:37 51°13.964 2°48.459 -999 -999 -999 -999 -999
2008-05-06 09:27:42 51°13.963 2°48.453 -999 -999 -999 -999 -999
2008-05-06 09:27:47 51°13.962 2°48.447 -999 -999 -999 -999 -999
2008-05-06 09:27:52 51°13.961 2°48.441 -999 -999 -999 -999 -999
2008-05-06 09:27:57 51°13.96 2°48.434 -999 -999 -999 -999 -999
2008-05-06 09:28:02 51°13.959 2°48.428 -999 -999 -999 -999 -999
2008-05-06 09:28:07 51°13.958 2°48.422 -999 -999 -999 -999 -999
2008-05-06 09:28:12 51°13.957 2°48.415 -999 -999 -999 -999 -999
2008-05-06 09:28:17 51°13.956 2°48.409 -999 -999 -999 -999 -999
2008-05-06 09:28:22 51°13.955 2°48.403 -999 -999 -999 -999 -999
2008-05-06 09:28:27 51°13.954 2°48.397 -999 -999 -999 -999 -999
2008-05-06 09:28:32 51°13.954 2°48.391 -999 -999 -999 -999 -999
2008-05-06 09:28:37 51°13.953 2°48.385 -999 -999 -999 -999 -999
2008-05-06 09:28:42 51°13.953 2°48.379 -999 -999 -999 -999 -999
2008-05-06 09:28:47 51°13.952 2°48.373 -999 -999 -999 -999 -999
2008-05-06 09:28:52 51°13.952 2°48.367 -999 -999 -999 -999 -999
2008-05-06 09:28:57 51°13.952 2°48.361 -999 -999 -999 -999 -999
2008-05-06 09:29:02 51°13.951 2°48.356 -999 -999 -999 -999 -999
2008-05-06 09:29:07 51°13.951 2°48.35 -999 -999 -999 -999 -999
2008-05-06 09:29:12 51°13.95 2°48.345 -999 -999 -999 -999 -999
2008-05-06 09:29:17 51°13.95 2°48.34 -999 -999 -999 -999 -999
2008-05-06 09:29:22 51°13.95 2°48.335 -999 -999 -999 -999 -999
2008-05-06 09:29:27 51°13.949 2°48.33 -999 -999 -999 -999 -999
2008-05-06 09:29:32 51°13.949 2°48.325 -999 -999 -999 -999 -999
2008-05-06 09:29:37 51°13.948 2°48.32 -999 -999 -999 -999 -999
2008-05-06 09:29:42 51°13.948 2°48.315 -999 -999 -999 -999 -999
2008-05-06 09:29:47 51°13.947 2°48.311 -999 -999 -999 -999 -999
2008-05-06 09:29:52 51°13.947 2°48.306 -999 -999 -999 -999 -999
2008-05-06 09:29:57 51°13.946 2°48.301 -999 -999 -999 -999 -999
2008-05-06 09:30:02 51°13.946 2°48.297 -999 -999 -999 -999 -999
2008-05-06 09:30:07 51°13.945 2°48.292 -999 -999 -999 -999 -999
2008-05-06 09:30:12 51°13.944 2°48.288 -999 -999 -999 -999 -999
2008-05-06 09:30:17 51°13.944 2°48.284 -999 -999 -999 -999 -999
2008-05-06 09:30:22 51°13.943 2°48.279 -999 -999 -999 -999 -999
2008-05-06 09:30:27 51°13.942 2°48.275 -999 -999 -999 -999 -999
2008-05-06 09:30:32 51°13.942 2°48.27 -999 -999 -999 -999 -999
2008-05-06 09:30:37 51°13.941 2°48.266 -999 -999 -999 -999 -999
2008-05-06 09:30:42 51°13.94 2°48.262 -999 -999 -999 -999 -999
2008-05-06 09:30:47 51°13.94 2°48.258 -999 -999 -999 -999 -999
2008-05-06 09:30:52 51°13.939 2°48.254 -999 -999 -999 -999 -999
2008-05-06 09:30:57 51°13.938 2°48.249 -999 -999 -999 -999 -999
2008-05-06 09:31:02 51°13.938 2°48.245 -999 -999 -999 -999 -999
2008-05-06 09:31:07 51°13.937 2°48.241 -999 -999 -999 -999 -999
2008-05-06 09:31:12 51°13.936 2°48.237 -999 -999 -999 -999 -999
2008-05-06 09:31:17 51°13.935 2°48.233 -999 -999 -999 -999 -999
2008-05-06 09:31:22 51°13.934 2°48.229 -999 -999 -999 -999 -999
2008-05-06 09:31:27 51°13.933 2°48.225 -999 -999 -999 -999 -999
2008-05-06 09:31:32 51°13.933 2°48.221 -999 -999 -999 -999 -999
2008-05-06 09:31:37 51°13.932 2°48.217 -999 -999 -999 -999 -999
2008-05-06 09:31:42 51°13.931 2°48.213 -999 -999 -999 -999 -999
2008-05-06 09:31:47 51°13.93 2°48.209 -999 -999 -999 -999 -999
2008-05-06 09:31:52 51°13.929 2°48.206 -999 -999 -999 -999 -999
2008-05-06 09:31:57 51°13.928 2°48.202 -999 -999 -999 -999 -999
2008-05-06 09:32:02 51°13.927 2°48.198 -999 -999 -999 -999 -999
2008-05-06 09:32:07 51°13.926 2°48.194 -999 -999 -999 -999 -999
2008-05-06 09:32:12 51°13.926 2°48.191 -999 -999 -999 -999 -999
2008-05-06 09:32:17 51°13.925 2°48.187 -999 -999 -999 -999 -999
2008-05-06 09:32:22 51°13.924 2°48.183 -999 -999 -999 -999 -999
2008-05-06 09:32:27 51°13.923 2°48.18 -999 -999 -999 -999 -999
2008-05-06 09:32:32 51°13.922 2°48.176 -999 -999 -999 -999 -999
2008-05-06 09:32:37 51°13.921 2°48.172 -999 -999 -999 -999 -999
2008-05-06 09:32:42 51°13.92 2°48.168 -999 -999 -999 -999 -999
2008-05-06 09:32:47 51°13.92 2°48.164 -999 -999 -999 -999 -999
2008-05-06 09:32:52 51°13.919 2°48.16 -999 -999 -999 -999 -999
2008-05-06 09:32:57 51°13.918 2°48.156 -999 -999 -999 -999 -999
2008-05-06 09:33:02 51°13.918 2°48.152 -999 -999 -999 -999 -999
2008-05-06 09:33:07 51°13.918 2°48.147 -999 -999 -999 -999 -999
2008-05-06 09:33:12 51°13.919 2°48.142 -999 -999 -999 -999 -999
2008-05-06 09:33:17 51°13.92 2°48.137 -999 -999 -999 -999 -999
2008-05-06 09:33:22 51°13.921 2°48.132 -999 -999 -999 -999 -999
2008-05-06 09:33:27 51°13.923 2°48.127 -999 -999 -999 -999 -999
2008-05-06 09:33:32 51°13.924 2°48.123 -999 -999 -999 -999 -999
2008-05-06 09:33:37 51°13.926 2°48.119 -999 -999 -999 -999 -999
2008-05-06 09:33:42 51°13.929 2°48.116 -999 -999 -999 -999 -999
2008-05-06 09:33:47 51°13.932 2°48.113 -999 -999 -999 -999 -999
2008-05-06 09:33:52 51°13.934 2°48.111 -999 -999 -999 -999 -999
2008-05-06 09:33:57 51°13.937 2°48.11 -999 -999 -999 -999 -999
2008-05-06 09:34:02 51°13.94 2°48.109 -999 -999 -999 -999 -999
2008-05-06 09:34:07 51°13.943 2°48.108 -999 -999 -999 -999 -999
2008-05-06 09:34:12 51°13.945 2°48.109 -999 -999 -999 -999 -999
2008-05-06 09:34:17 51°13.948 2°48.11 -999 -999 -999 -999 -999
2008-05-06 09:34:22 51°13.95 2°48.112 -999 -999 -999 -999 -999
2008-05-06 09:34:27 51°13.952 2°48.114 -999 -999 -999 -999 -999
2008-05-06 09:34:32 51°13.954 2°48.117 -999 -999 -999 -999 -999
2008-05-06 09:34:37 51°13.955 2°48.121 -999 -999 -999 -999 -999
2008-05-06 09:34:42 51°13.956 2°48.124 -999 -999 -999 -999 -999
2008-05-06 09:34:47 51°13.957 2°48.129 -999 -999 -999 -999 -999
2008-05-06 09:34:52 51°13.957 2°48.133 -999 -999 -999 -999 -999
2008-05-06 09:34:57 51°13.957 2°48.138 -999 -999 -999 -999 -999
2008-05-06 09:35:02 51°13.957 2°48.144 -999 -999 -999 -999 -999
2008-05-06 09:35:07 51°13.956 2°48.149 -999 -999 -999 -999 -999
2008-05-06 09:35:12 51°13.956 2°48.155 -999 -999 -999 -999 -999
2008-05-06 09:35:17 51°13.956 2°48.161 -999 -999 -999 -999 -999
2008-05-06 09:35:22 51°13.956 2°48.167 -999 -999 -999 -999 -999
2008-05-06 09:35:27 51°13.956 2°48.174 -999 -999 -999 -999 -999
2008-05-06 09:35:32 51°13.956 2°48.18 -999 -999 -999 -999 -999
2008-05-06 09:35:37 51°13.956 2°48.187 -999 -999 -999 -999 -999
2008-05-06 09:35:42 51°13.957 2°48.194 -999 -999 -999 -999 -999
2008-05-06 09:35:47 51°13.957 2°48.201 -999 -999 -999 -999 -999
2008-05-06 09:35:52 51°13.958 2°48.208 -999 -999 -999 -999 -999
2008-05-06 09:35:57 51°13.959 2°48.215 -999 -999 -999 -999 -999
2008-05-06 09:36:02 51°13.96 2°48.222 -999 -999 -999 -999 -999
2008-05-06 09:36:07 51°13.961 2°48.229 -999 -999 -999 -999 -999
2008-05-06 09:36:12 51°13.962 2°48.236 -999 -999 -999 -999 -999
2008-05-06 09:36:17 51°13.964 2°48.243 -999 -999 -999 -999 -999
2008-05-06 09:36:22 51°13.965 2°48.25 -999 -999 -999 -999 -999
2008-05-06 09:36:26 51°13.966 2°48.256 -999 -999 -999 -999 -999
2008-05-06 09:36:32 51°13.968 2°48.265 -999 -999 -999 -999 -999
2008-05-06 09:36:37 51°13.97 2°48.272 -999 -999 -999 -999 -999
2008-05-06 09:36:41 51°13.971 2°48.278 -999 -999 -999 -999 -999
2008-05-06 09:36:47 51°13.973 2°48.287 -999 -999 -999 -999 -999
2008-05-06 09:36:52 51°13.975 2°48.294 -999 -999 -999 -999 -999
2008-05-06 09:36:57 51°13.976 2°48.302 -999 -999 -999 -999 -999
2008-05-06 09:37:01 51°13.978 2°48.309 -999 -999 -999 -999 -999
2008-05-06 09:37:07 51°13.98 2°48.319 -999 -999 -999 -999 -999
2008-05-06 09:37:12 51°13.981 2°48.327 -999 -999 -999 -999 -999
2008-05-06 09:37:17 51°13.983 2°48.336 -999 -999 -999 -999 -999
2008-05-06 09:37:21 51°13.985 2°48.343 -999 -999 -999 -999 -999
2008-05-06 09:37:27 51°13.986 2°48.354 -999 -999 -999 -999 -999
2008-05-06 09:37:32 51°13.988 2°48.363 -999 -999 -999 -999 -999
2008-05-06 09:37:36 51°13.989 2°48.371 -999 -999 -999 -999 -999
2008-05-06 09:37:42 51°13.992 2°48.382 -999 -999 -999 -999 -999
2008-05-06 09:37:47 51°13.993 2°48.391 -999 -999 -999 -999 -999
2008-05-06 09:37:52 51°13.995 2°48.401 -999 -999 -999 -999 -999
2008-05-06 09:37:56 51°13.997 2°48.408 -999 -999 -999 -999 -999
2008-05-06 09:38:01 51°13.998 2°48.418 -999 -999 -999 -999 -999
2008-05-06 09:38:07 51°14.001 2°48.429 -999 -999 -999 -999 -999
2008-05-06 09:38:12 51°14.002 2°48.439 -999 -999 -999 -999 -999
2008-05-06 09:38:16 51°14.004 2°48.447 -999 -999 -999 -999 -999
2008-05-06 09:38:21 51°14.006 2°48.457 -999 -999 -999 -999 -999
2008-05-06 09:38:27 51°14.008 2°48.468 -999 -999 -999 -999 -999
2008-05-06 09:38:32 51°14.01 2°48.478 -999 -999 -999 -999 -999
2008-05-06 09:38:37 51°14.011 2°48.488 -999 -999 -999 -999 -999
2008-05-06 09:38:41 51°14.013 2°48.496 -999 -999 -999 -999 -999
2008-05-06 09:38:47 51°14.015 2°48.508 -999 -999 -999 -999 -999
2008-05-06 09:38:52 51°14.017 2°48.518 -999 -999 -999 -999 -999
2008-05-06 09:38:57 51°14.019 2°48.528 -999 -999 -999 -999 -999
2008-05-06 09:39:01 51°14.02 2°48.535 -999 -999 -999 -999 -999
2008-05-06 09:39:07 51°14.022 2°48.547 -999 -999 -999 -999 -999
2008-05-06 09:39:12 51°14.024 2°48.557 -999 -999 -999 -999 -999
2008-05-06 09:39:17 51°14.026 2°48.567 -999 -999 -999 -999 -999
2008-05-06 09:39:21 51°14.027 2°48.576 -999 -999 -999 -999 -999
2008-05-06 09:39:27 51°14.029 2°48.588 -999 -999 -999 -999 -999
2008-05-06 09:39:32 51°14.031 2°48.6 -999 -999 -999 -999 -999
2008-05-06 09:39:37 51°14.033 2°48.611 -999 -999 -999 -999 -999
2008-05-06 09:39:42 51°14.035 2°48.623 -999 -999 -999 -999 -999
2008-05-06 09:39:47 51°14.037 2°48.635 -999 -999 -999 -999 -999
2008-05-06 09:39:52 51°14.04 2°48.648 -999 -999 -999 -999 -999
2008-05-06 09:39:56 51°14.041 2°48.658 -999 -999 -999 -999 -999
2008-05-06 09:40:02 51°14.044 2°48.673 -999 -999 -999 -999 -999
2008-05-06 09:40:07 51°14.046 2°48.686 -999 -999 -999 -999 -999
2008-05-06 09:40:12 51°14.048 2°48.699 -999 -999 -999 -999 -999
2008-05-06 09:40:16 51°14.05 2°48.71 -999 -999 -999 -999 -999
2008-05-06 09:40:22 51°14.053 2°48.726 -999 -999 -999 -999 -999
2008-05-06 09:40:27 51°14.056 2°48.739 -999 -999 -999 -999 -999
2008-05-06 09:40:32 51°14.058 2°48.753 -999 -999 -999 -999 -999
2008-05-06 09:40:36 51°14.06 2°48.764 -999 -999 -999 -999 -999
2008-05-06 09:40:41 51°14.062 2°48.777 -999 -999 -999 -999 -999
2008-05-06 09:40:47 51°14.065 2°48.794 -999 -999 -999 -999 -999
2008-05-06 09:40:52 51°14.068 2°48.808 -999 -999 -999 -999 -999
2008-05-06 09:40:57 51°14.071 2°48.822 -999 -999 -999 -999 -999
2008-05-06 09:41:01 51°14.073 2°48.834 -999 -999 -999 -999 -999
2008-05-06 09:41:07 51°14.076 2°48.851 -999 -999 -999 -999 -999
2008-05-06 09:41:12 51°14.079 2°48.866 -999 -999 -999 -999 -999
2008-05-06 09:41:16 51°14.081 2°48.878 -999 -999 -999 -999 -999
2008-05-06 09:41:21 51°14.083 2°48.893 -999 -999 -999 -999 -999
2008-05-06 09:41:27 51°14.087 2°48.911 -999 -999 -999 -999 -999
2008-05-06 09:41:32 51°14.09 2°48.926 -999 -999 -999 -999 -999
2008-05-06 09:41:37 51°14.092 2°48.942 -999 -999 -999 -999 -999
2008-05-06 09:41:41 51°14.095 2°48.954 -999 -999 -999 -999 -999
2008-05-06 09:41:47 51°14.098 2°48.972 -999 -999 -999 -999 -999
2008-05-06 09:41:52 51°14.101 2°48.988 -999 -999 -999 -999 -999
2008-05-06 09:41:57 51°14.104 2°49.003 -999 -999 -999 -999 -999
2008-05-06 09:42:02 51°14.107 2°49.019 -999 -999 -999 -999 -999
2008-05-06 09:42:07 51°14.11 2°49.034 -999 -999 -999 -999 -999
2008-05-06 09:42:12 51°14.113 2°49.05 -999 -999 -999 -999 -999
2008-05-06 09:42:16 51°14.115 2°49.063 -999 -999 -999 -999 -999
2008-05-06 09:42:22 51°14.119 2°49.082 -999 -999 -999 -999 -999
2008-05-06 09:42:27 51°14.122 2°49.098 -999 -999 -999 -999 -999
2008-05-06 09:42:32 51°14.125 2°49.113 -999 -999 -999 -999 -999
2008-05-06 09:42:36 51°14.127 2°49.126 -999 -999 -999 -999 -999
2008-05-06 09:42:42 51°14.131 2°49.145 -999 -999 -999 -999 -999
2008-05-06 09:42:47 51°14.133 2°49.161 -999 -999 -999 -999 -999
2008-05-06 09:42:52 51°14.137 2°49.177 -999 -999 -999 -999 -999
2008-05-06 09:42:57 51°14.14 2°49.193 -999 -999 -999 -999 -999
2008-05-06 09:43:01 51°14.142 2°49.206 -999 -999 -999 -999 -999
2008-05-06 09:43:07 51°14.146 2°49.225 -999 -999 -999 -999 -999
2008-05-06 09:43:12 51°14.148 2°49.241 -999 -999 -999 -999 -999
2008-05-06 09:43:16 51°14.15 2°49.254 -999 -999 -999 -999 -999
2008-05-06 09:43:21 51°14.153 2°49.27 -999 -999 -999 -999 -999
2008-05-06 09:43:27 51°14.155 2°49.29 -999 -999 -999 -999 -999
2008-05-06 09:43:32 51°14.157 2°49.307 -999 -999 -999 -999 -999
2008-05-06 09:43:37 51°14.16 2°49.323 -999 -999 -999 -999 -999
2008-05-06 09:43:41 51°14.161 2°49.336 -999 -999 -999 -999 -999
2008-05-06 09:43:47 51°14.164 2°49.356 -999 -999 -999 -999 -999
2008-05-06 09:43:52 51°14.166 2°49.373 -999 -999 -999 -999 -999
2008-05-06 09:43:57 51°14.168 2°49.389 -999 -999 -999 -999 -999
2008-05-06 09:44:02 51°14.169 2°49.406 -999 -999 -999 -999 -999
2008-05-06 09:44:07 51°14.171 2°49.422 -999 -999 -999 -999 -999
2008-05-06 09:44:12 51°14.173 2°49.439 -999 -999 -999 -999 -999
2008-05-06 09:44:17 51°14.175 2°49.456 -999 -999 -999 -999 -999
2008-05-06 09:44:22 51°14.177 2°49.472 -999 -999 -999 -999 -999
2008-05-06 09:44:27 51°14.179 2°49.489 -999 -999 -999 -999 -999
2008-05-06 09:44:32 51°14.181 2°49.506 -999 -999 -999 -999 -999
2008-05-06 09:44:36 51°14.182 2°49.519 -999 -999 -999 -999 -999
2008-05-06 09:44:41 51°14.184 2°49.536 -999 -999 -999 -999 -999
2008-05-06 09:44:47 51°14.186 2°49.556 -999 -999 -999 -999 -999
2008-05-06 09:44:52 51°14.188 2°49.572 -999 -999 -999 -999 -999
2008-05-06 09:44:57 51°14.19 2°49.589 -999 -999 -999 -999 -999
2008-05-06 09:45:01 51°14.192 2°49.602 -999 -999 -999 -999 -999
2008-05-06 09:45:07 51°14.194 2°49.622 -999 -999 -999 -999 -999
2008-05-06 09:45:12 51°14.196 2°49.639 -999 -999 -999 -999 -999